Poplar Bluff, MO

12:09 PM CDT on July 21, 2019 (GMT -0500)
Poplar Bluff Municipal

Weather History for KPOF - May, 2019

Change the Weather History Date:

Sunday, May 12, 2019

  Actual Average Record
Temperature  
Mean Temperature 57 °F -  
Max Temperature 66 °F 78 °F 91 °F (2005)
Min Temperature 50 °F 56 °F 39 °F (1951)
Degree Days  
Heating Degree Days 8    
Growing Degree Days 7 (Base 50)    
Moisture  
Dew Point 50 °F    
Average Humidity 86    
Maximum Humidity 100    
Minimum Humidity 54    
Precipitation  
Precipitation 0.09 in - - ()
Sea Level Pressure  
Sea Level Pressure 29.84 in    
Wind  
Wind Speed 6 mph (NNW)    
Max Wind Speed 12 mph    
Max Gust Speed -    
Visibility 10 miles    
Events Rain    
Averages and records for this station are not official NWS values.
T = Trace of Precipitation, MM = Missing Value Source: NWS Daily Summary

Daily Weather History Graph

Daily Weather History Graph

Search for Another Location

Airport or City:

Astronomy

May. 12, 2019 Rise Set
Actual Time 5:56 AM CDT 7:59 PM CDT
Civil Twilight 5:27 AM CDT 8:28 PM CDT
Nautical Twilight 4:53 AM CDT 9:03 PM CDT
Astronomical Twilight 4:15 AM CDT 9:40 PM CDT
Moon 1:14 PM CDT (5/12) 2:22 AM CDT (5/12)
Length of Visible Light 15h 00m
Length of Day
14h 02m
First Quarter, 58% of the Moon is Illuminated
May 12
First Quarter
May 18
Full
May 26
Last Quarter
Jun 3
New
Jun 10
First Quarter

Hourly Weather History & Observations

Time (CDT) Temp. Dew Point Humidity Pressure Visibility Wind Dir Wind Speed Gust Speed Precip Events Conditions
12:21 AM 51.1 °F 51.1 °F 100% 29.85 in 10.0 mi NNW 8.1 mph - 0.00 in Rain Light Rain
12:53 AM 51.1 °F 50.0 °F 96% 29.84 in 10.0 mi North 8.1 mph - 0.00 in   Overcast
1:02 AM 51.1 °F 50.0 °F 96% 29.84 in 10.0 mi NNW 8.1 mph - N/A   Overcast
1:15 AM 51.1 °F 51.1 °F 100% 29.83 in 10.0 mi NNW 6.9 mph - N/A   Overcast
1:46 AM 51.1 °F 50.0 °F 96% 29.82 in 10.0 mi North 6.9 mph - 0.00 in   Overcast
1:53 AM 51.1 °F 50.0 °F 96% 29.83 in 10.0 mi NNW 6.9 mph - 0.00 in   Overcast
2:12 AM 50.0 °F 50.0 °F 100% 29.83 in 10.0 mi NW 5.8 mph - N/A   Overcast
2:19 AM 50.0 °F 50.0 °F 100% 29.83 in 10.0 mi NW 5.8 mph - N/A   Overcast
2:53 AM 50.0 °F 48.9 °F 96% 29.82 in 10.0 mi North 4.6 mph - N/A   Overcast
3:16 AM 50.0 °F 48.9 °F 96% 29.82 in 10.0 mi North 5.8 mph - N/A   Overcast
3:53 AM 50.0 °F 48.9 °F 96% 29.82 in 10.0 mi North 5.8 mph - N/A   Overcast
4:20 AM 50.0 °F 48.9 °F 96% 29.82 in 10.0 mi NNW 3.5 mph - N/A   Overcast
4:36 AM 51.1 °F 50.0 °F 96% 29.82 in 10.0 mi North 4.6 mph - N/A   Overcast
4:53 AM 50.0 °F 48.9 °F 96% 29.83 in 10.0 mi NNW 4.6 mph - N/A   Overcast
5:53 AM 50.0 °F 50.0 °F 100% 29.83 in 10.0 mi NNW 4.6 mph - N/A   Overcast
6:32 AM 51.1 °F 48.9 °F 92% 29.84 in 10.0 mi NNW 4.6 mph - N/A   Overcast
6:39 AM 51.1 °F 48.9 °F 92% 29.84 in 10.0 mi North 3.5 mph - N/A   Overcast
6:53 AM 51.1 °F 48.9 °F 92% 29.84 in 10.0 mi North 3.5 mph - N/A   Overcast
7:08 AM 51.1 °F 48.9 °F 92% 29.85 in 10.0 mi North 4.6 mph - N/A   Overcast
7:21 AM 51.1 °F 48.9 °F 92% 29.86 in 10.0 mi NW 5.8 mph - N/A   Overcast
7:53 AM 51.1 °F 48.9 °F 92% 29.86 in 10.0 mi NW 4.6 mph - N/A   Overcast
8:53 AM 52.0 °F 48.9 °F 89% 29.86 in 10.0 mi NW 5.8 mph - N/A   Overcast
9:53 AM 54.0 °F 48.9 °F 83% 29.86 in 10.0 mi NW 4.6 mph - N/A   Overcast
10:34 AM 55.9 °F 50.0 °F 80% 29.86 in 10.0 mi NNW 3.5 mph - N/A   Overcast
10:53 AM 55.9 °F 48.9 °F 77% 29.86 in 10.0 mi NNW 3.5 mph - N/A   Overcast
11:33 AM 59.0 °F 50.0 °F 72% 29.86 in 10.0 mi WSW 6.9 mph - N/A   Mostly Cloudy
11:53 AM 60.1 °F 48.9 °F 67% 29.86 in 10.0 mi North - - N/A   Mostly Cloudy
12:53 PM 61.0 °F 48.9 °F 64% 29.84 in 10.0 mi North 11.5 mph - N/A   Overcast
1:53 PM 64.0 °F 50.0 °F 60% 29.82 in 10.0 mi West 8.1 mph - N/A   Mostly Cloudy
2:53 PM 62.1 °F 51.1 °F 67% 29.82 in 10.0 mi Variable 5.8 mph - N/A   Mostly Cloudy
3:53 PM 64.0 °F 52.0 °F 65% 29.82 in 10.0 mi SSW 3.5 mph - N/A   Overcast
4:53 PM 64.9 °F 48.9 °F 56% 29.81 in 10.0 mi NW 5.8 mph - N/A   Mostly Cloudy
5:53 PM 64.9 °F 48.0 °F 54% 29.80 in 10.0 mi SW 3.5 mph - N/A   Scattered Clouds
6:53 PM 64.9 °F 48.9 °F 56% 29.79 in 10.0 mi Calm Calm - N/A   Clear
7:53 PM 62.1 °F 53.1 °F 72% 29.81 in 10.0 mi Calm Calm - N/A   Overcast
8:53 PM 57.0 °F 54.0 °F 89% 29.85 in 5.0 mi NW 9.2 mph - 0.02 in Rain Light Rain
9:53 PM 55.9 °F 55.0 °F 97% 29.86 in 10.0 mi NNW 3.5 mph - 0.07 in   Scattered Clouds
10:53 PM 55.9 °F 55.0 °F 97% 29.87 in 10.0 mi Calm Calm - N/A   Mostly Cloudy
11:53 PM 54.0 °F 54.0 °F 100% 29.88 in 10.0 mi NNW 4.6 mph - N/A   Clear